Location: Ravensburg
(47.7866°N, 9.6124°E)
Time: 23:17:33
(UTC+02:00)

AO-85 - Pass Details

Date: 14 March 2026
Orbit: 507 x 686 km, 64.8° (Epoch: 11 April)

Event Time Altitude Azimuth Distance (km) Brightness Sun altitude
Exits shadow 04:56:09 23° 199° (SSW) 1,160 ? -17.6°
Maximum altitude 04:58:28 63° 125° (SE) 592 ? -17.2°
Drops below altitude 10° 05:02:20 10° 44° (NE) 1,748 ? -16.6°
Sets 05:04:29 0° 41° (NE) 2,628 ? -16.3°
